TJS-23

Last updated on Mon Sep 07 2026 00:03:03 GMT+0000 (Coordinated Universal Time)

1 67226U 25306A 26249.37803804 .00000002 00000+0 00000+0 0 9995 2 67226 5.4090 297.0916 0004495 243.1333 116.8014 1.00272186 2705
UTC large
Height (km)
Speed (km/s)
/
Latitude / Longitude
Inclination (degrees)
Orbital Period (minutes)
Azimuth
Elevation
Range (km)
Doppler Factor

Next 0 passes for location: London (51.5072 / 0.1276)

No passes found over London.
TJS-23